Weather History for CWVU - November, 2013

Change the Weather History Date:

Saturday, November 16, 2013

  Actual Average Record
Temperature  
Mean Temperature 45 °F -  
Max Temperature 48 °F - - ()
Min Temperature 42 °F - - ()
Degree Days  
Heating Degree Days 20    
Moisture  
Dew Point 45 °F    
Average Humidity 95    
Maximum Humidity 98    
Minimum Humidity 92    
Precipitation  
Precipitation 0.00 in - - ()
Sea Level Pressure  
Sea Level Pressure 30.31 in    
Wind  
Wind Speed 5 mph ()    
Max Wind Speed 13 mph    
Max Gust Speed -    
T = Trace of Precipitation, MM = Missing Value Source: Averaged Metar Reports

Daily Weather History Graph

Daily Weather History Graph

Search for Another Location

Airport or City:

Trip Planner

Search our weather history database for the weather conditions in past years. The results will help you decide how hot, cold, wet, or windy it might be!

Date:

Astronomy

Nov. 16, 2013 Rise Set
Actual Time 7:22 AM AST 4:57 PM AST
Civil Twilight 6:51 AM AST 5:28 PM AST
Nautical Twilight 6:16 AM AST 6:03 PM AST
Astronomical Twilight 5:41 AM AST 6:38 PM AST
Moon 4:31 PM AST (11/16) 6:13 AM AST (11/16)
Length of Visible Light 10h 37m
Length of Day
9h 34m
Waxing Gibbous, 99% of the Moon is Illuminated
Nov 16
Waxing Gibbous
Nov 17
Full
Nov 25
Last Quarter
Dec 2
New
Dec 9
First Quarter

Hourly Weather History & Observations

Time (AST) Temp. Windchill Dew Point Humidity Pressure Visibility Wind Dir Wind Speed Gust Speed Precip Events Conditions
12:00 AM 45.9 °F 43.6 °F 43.7 °F 92% 30.23 in - South 4.6 mph - N/A   Unknown
1:00 AM 47.1 °F - 45.5 °F 94% 30.23 in - South 4.6 mph - N/A   Unknown
2:00 AM 47 °F - 46 °F 95% 30.24 in - SSW 3.5 mph - -  
2:00 AM 47.5 °F - 46.0 °F 95% 30.24 in - SSW 3.5 mph - N/A   Unknown
3:00 AM 48.0 °F - 46.8 °F 95% 30.25 in - West 2.3 mph - N/A   Unknown
4:00 AM 44.1 °F - 42.4 °F 94% 30.27 in - NNW 1.2 mph - N/A   Unknown
5:00 AM 43.7 °F 39.1 °F 43.0 °F 97% 30.27 in - East 8.1 mph - N/A   Unknown
6:00 AM 43.5 °F 40.1 °F 42.8 °F 97% 30.27 in - East 5.8 mph - N/A   Unknown
7:00 AM 42.8 °F 36.2 °F 42.3 °F 98% 30.28 in - East 12.7 mph - N/A   Unknown
8:00 AM 44 °F - 43 °F 95% 30.30 in - East 9.2 mph - -  
8:00 AM 43.5 °F 38.3 °F 43.0 °F 98% 30.30 in - East 9.2 mph - N/A   Unknown
9:00 AM 44.6 °F 39.7 °F 44.1 °F 98% 30.31 in - East 9.2 mph - N/A   Unknown
10:00 AM 46.0 °F 44.8 °F 45.5 °F 98% 30.32 in - East 3.5 mph - N/A   Unknown
11:00 AM 46.9 °F - 46.2 °F 97% 30.32 in - East 8.1 mph - N/A   Unknown
12:00 PM 47.1 °F - 46.2 °F 97% 30.32 in - SE 6.9 mph - N/A   Unknown
1:00 PM 47.5 °F - 46.2 °F 95% 30.32 in - SE 8.1 mph - N/A   Unknown
2:00 PM 48 °F - 47 °F 94% 30.31 in - East 8.1 mph - -  
2:00 PM 48.0 °F - 46.8 °F 95% 30.31 in - East 8.1 mph - N/A   Unknown
3:00 PM 48.4 °F - 46.8 °F 94% 30.32 in - East 5.8 mph - N/A   Unknown
4:00 PM 48.4 °F - 46.6 °F 93% 30.34 in - NE 1.2 mph - N/A   Unknown
5:00 PM 48.0 °F - 46.4 °F 94% 30.33 in - NNE 6.9 mph - N/A   Unknown
6:00 PM 47.3 °F - 45.7 °F 94% 30.35 in - NE 5.8 mph - N/A   Unknown
7:00 PM 46.9 °F - 45.3 °F 94% 30.35 in - ENE 3.5 mph - N/A   Unknown
8:00 PM 47 °F - 45 °F 92% 30.37 in - East 3.5 mph - -  
8:00 PM 46.9 °F - 45.3 °F 94% 30.37 in - East 3.5 mph - N/A   Unknown
9:00 PM 45.1 °F - 43.7 °F 95% 30.36 in - ESE 2.3 mph - N/A   Unknown
10:00 PM 45.7 °F - 44.4 °F 95% 30.37 in - East 2.3 mph - N/A   Unknown
11:00 PM 45.5 °F - 44.6 °F 97% 30.37 in - ENE 2.3 mph - N/A   Unknown